Previsão horária em Cemsa

Hoje, 25 Julho, Domingo

Tempo Temperatura Precipitação Vento Pressão Humidade
00:00 +14°C° 0.2 mm 1 m/s 614 mmHg 93%
01:00 +14°C° 0.2 mm 1 m/s 614 mmHg 93%
02:00 +14°C° 0.2 mm 1 m/s 614 mmHg 93%
03:00 +14°C° 0 mm 1 m/s 614 mmHg 93%
04:00 +15°C° 0.5 mm 1 m/s 614 mmHg 92%
05:00 +15°C° 0.5 mm 1 m/s 615 mmHg 92%
06:00 +16°C° 0.5 mm 1 m/s 615 mmHg 91%
07:00 +16°C° 0.5 mm 1 m/s 615 mmHg 89%
08:00 +18°C° 0.5 mm 1 m/s 616 mmHg 88%
09:00 +18°C° 0 mm 1 m/s 616 mmHg 85%
10:00 +19°C° 0.4 mm 1 m/s 616 mmHg 84%
11:00 +19°C° 0.4 mm 1 m/s 616 mmHg 83%
12:00 +20°C° 0.4 mm 1 m/s 617 mmHg 82%
13:00 +20°C° 0.4 mm 1 m/s 617 mmHg 82%
14:00 +20°C° 0.4 mm 1 m/s 617 mmHg 82%
15:00 +20°C° 0.4 mm 1 m/s 617 mmHg 82%
16:00 +20°C° 0.3 mm 1 m/s 617 mmHg 83%
17:00 +20°C° 0.3 mm 1 m/s 617 mmHg 84%
18:00 +19°C° 0.3 mm 1 m/s 617 mmHg 84%
19:00 +18°C° 0.1 mm 1 m/s 617 mmHg 87%
20:00 +16°C° 0.1 mm 1 m/s 617 mmHg 90%
21:00 +15°C° 0.1 mm 2 m/s 617 mmHg 92%
22:00 +15°C° 0.1 mm 2 m/s 617 mmHg 91%
23:00 +15°C° 0.1 mm 2 m/s 616 mmHg 90%

Amanhã, 26 Julho, Segunda-feira

Tempo Temperatura Precipitação Vento Pressão Humidade
00:00 +14°C° 0.1 mm 2 m/s 616 mmHg 89%
01:00 +14°C° 0.2 mm 2 m/s 616 mmHg 89%
02:00 +14°C° 0.2 mm 2 m/s 616 mmHg 88%
03:00 +14°C° 0.2 mm 2 m/s 616 mmHg 88%
04:00 +15°C° 0.2 mm 1 m/s 616 mmHg 88%
05:00 +15°C° 0.2 mm 1 m/s 616 mmHg 89%
06:00 +16°C° 0.2 mm 1 m/s 617 mmHg 89%
07:00 +18°C° 0.5 mm 1 m/s 617 mmHg 84%
08:00 +20°C° 0.5 mm 1 m/s 617 mmHg 79%
09:00 +22°C° 0.5 mm 1 m/s 618 mmHg 74%
10:00 +21°C° 0.5 mm 2 m/s 618 mmHg 74%
11:00 +23°C° 0.5 mm 2 m/s 618 mmHg 74%
12:00 +23°C° 0.5 mm 2 m/s 618 mmHg 74%
13:00 +23°C° 0.8 mm 2 m/s 618 mmHg 76%
14:00 +21°C° 0.8 mm 2 m/s 618 mmHg 78%
15:00 +22°C° 0.8 mm 1 m/s 618 mmHg 80%
16:00 +22°C° 0.4 mm 1 m/s 618 mmHg 81%
17:00 +21°C° 0.4 mm 1 m/s 618 mmHg 81%
18:00 +21°C° 0.4 mm 1 m/s 618 mmHg 82%
19:00 +20°C° 0.5 mm 1 m/s 617 mmHg 85%
20:00 +18°C° 0.5 mm 1 m/s 617 mmHg 87%
21:00 +16°C° 0.5 mm 2 m/s 617 mmHg 90%
22:00 +16°C° 1.2 mm 2 m/s 616 mmHg 90%
23:00 +15°C° 1.2 mm 1 m/s 616 mmHg 91%

Depois de amanhã, 27 Julho, Terça-feira

Tempo Temperatura Precipitação Vento Pressão Humidade
00:00 +15°C° 1.2 mm 1 m/s 616 mmHg 91%
01:00 +15°C° 1.6 mm 1 m/s 616 mmHg 92%
02:00 +15°C° 1.6 mm 1 m/s 616 mmHg 93%
03:00 +15°C° 1.6 mm 1 m/s 616 mmHg 94%
04:00 +15°C° 0.6 mm 1 m/s 616 mmHg 94%
05:00 +15°C° 0.6 mm 1 m/s 616 mmHg 93%
06:00 +15°C° 0.6 mm 1 m/s 616 mmHg 93%
07:00 +16°C° 0.4 mm 1 m/s 616 mmHg 91%
08:00 +18°C° 0.4 mm 1 m/s 616 mmHg 89%
09:00 +19°C° 0.4 mm 1 m/s 616 mmHg 87%
10:00 +19°C° 0.9 mm 1 m/s 616 mmHg 87%
11:00 +19°C° 0.9 mm 1 m/s 616 mmHg 87%
12:00 +20°C° 0.9 mm 1 m/s 616 mmHg 86%
13:00 +19°C° 1.5 mm 1 m/s 616 mmHg 87%
14:00 +19°C° 1.5 mm 1 m/s 615 mmHg 87%
15:00 +19°C° 1.5 mm 1 m/s 615 mmHg 87%
16:00 +17°C° 1 mm 2 m/s 615 mmHg 90%
17:00 +16°C° 1 mm 2 m/s 615 mmHg 92%
18:00 +15°C° 1 mm 2 m/s 615 mmHg 94%
19:00 +15°C° 0.5 mm 2 m/s 615 mmHg 95%
20:00 +14°C° 0.5 mm 2 m/s 615 mmHg 95%
21:00 +12°C° 0.5 mm 3 m/s 615 mmHg 95%
22:00 +13°C° 0.1 mm 2 m/s 615 mmHg 95%
23:00 +13°C° 0.1 mm 2 m/s 615 mmHg 96%

28 Julho, Quarta-feira

Tempo Temperatura Precipitação Vento Pressão Humidade
00:00 +13°C° 0.1 mm 2 m/s 615 mmHg 96%
01:00 +12°C° 0 mm 2 m/s 614 mmHg 96%
02:00 +12°C° 0 mm 2 m/s 614 mmHg 96%
03:00 +12°C° 0 mm 2 m/s 614 mmHg 96%
04:00 +12°C° 0 mm 2 m/s 614 mmHg 96%
05:00 +11°C° 0 mm 3 m/s 614 mmHg 96%
06:00 +11°C° 0 mm 3 m/s 614 mmHg 96%
07:00 +11°C° 0.1 mm 3 m/s 615 mmHg 93%
08:00 +13°C° 0.1 mm 2 m/s 615 mmHg 91%
09:00 +13°C° 0.1 mm 2 m/s 615 mmHg 88%
10:00 +14°C° 0.1 mm 2 m/s 615 mmHg 86%
11:00 +14°C° 0.1 mm 2 m/s 615 mmHg 85%
12:00 +15°C° 0.1 mm 1 m/s 615 mmHg 83%
13:00 +15°C° 0.1 mm 2 m/s 615 mmHg 82%
14:00 +16°C° 0.1 mm 2 m/s 615 mmHg 80%
15:00 +16°C° 0.1 mm 2 m/s 615 mmHg 79%
16:00 +16°C° 0.2 mm 2 m/s 615 mmHg 81%
17:00 +15°C° 0.2 mm 2 m/s 616 mmHg 84%
18:00 +15°C° 0.2 mm 2 m/s 616 mmHg 86%
19:00 +14°C° 0 mm 2 m/s 616 mmHg 88%
20:00 +13°C° 0 mm 2 m/s 615 mmHg 89%
21:00 +11°C° 0 mm 3 m/s 615 mmHg 91%
22:00 +10°C° 0 mm 2 m/s 615 mmHg 90%
23:00 +10°C° 0 mm 2 m/s 615 mmHg 89%

29 Julho, Quinta-feira

Tempo Temperatura Precipitação Vento Pressão Humidade
00:00 +9°C° 0 mm 2 m/s 614 mmHg 88%
01:00 +9°C° 0 mm 2 m/s 614 mmHg 85%
02:00 +10°C° 0 mm 1 m/s 614 mmHg 83%
03:00 +10°C° 0 mm 1 m/s 613 mmHg 81%
04:00 +11°C° 0 mm 1 m/s 614 mmHg 81%
05:00 +12°C° 0 mm 1 m/s 614 mmHg 81%
06:00 +13°C° 0 mm 1 m/s 615 mmHg 82%
07:00 +14°C° 0 mm 1 m/s 615 mmHg 78%
08:00 +16°C° 0 mm 1 m/s 615 mmHg 74%
09:00 +19°C° 0 mm 1 m/s 616 mmHg 70%
10:00 +19°C° 0 mm 1 m/s 616 mmHg 70%
11:00 +19°C° 0 mm 1 m/s 616 mmHg 71%
12:00 +20°C° 0 mm 1 m/s 616 mmHg 71%
13:00 +19°C° 0.1 mm 1 m/s 616 mmHg 73%
14:00 +19°C° 0.1 mm 1 m/s 616 mmHg 76%
15:00 +19°C° 0.1 mm 1 m/s 616 mmHg 78%
16:00 +19°C° 0.1 mm 1 m/s 616 mmHg 81%
17:00 +18°C° 0.1 mm 1 m/s 615 mmHg 84%
18:00 +18°C° 0.1 mm 1 m/s 615 mmHg 87%
19:00 +16°C° 0 mm 1 m/s 615 mmHg 89%
20:00 +15°C° 0 mm 1 m/s 615 mmHg 91%
21:00 +14°C° 0 mm 1 m/s 615 mmHg 93%
22:00 +14°C° 0 mm 1 m/s 614 mmHg 92%
23:00 +13°C° 0 mm 1 m/s 614 mmHg 90%

30 Julho, Sexta-feira

Tempo Temperatura Precipitação Vento Pressão Humidade
00:00 +13°C° 0 mm 1 m/s 614 mmHg 89%
01:00 +12°C° 0 mm 1 m/s 614 mmHg 89%
02:00 +12°C° 0 mm 1 m/s 613 mmHg 89%
03:00 +12°C° 0 mm 1 m/s 613 mmHg 88%
04:00 +12°C° 0 mm 1 m/s 613 mmHg 87%
05:00 +13°C° 0 mm 1 m/s 614 mmHg 85%
06:00 +13°C° 0 mm 1 m/s 614 mmHg 84%
07:00 +15°C° 0 mm 1 m/s 615 mmHg 77%
08:00 +18°C° 0 mm 1 m/s 615 mmHg 70%
09:00 +20°C° 0 mm 1 m/s 616 mmHg 63%
10:00 +20°C° 0 mm 2 m/s 616 mmHg 61%
11:00 +20°C° 0 mm 2 m/s 616 mmHg 59%
12:00 +21°C° 0 mm 2 m/s 616 mmHg 57%
13:00 +21°C° 0.1 mm 2 m/s 616 mmHg 59%
14:00 +21°C° 0.1 mm 2 m/s 616 mmHg 61%
15:00 +21°C° 0.1 mm 2 m/s 616 mmHg 64%
16:00 +20°C° 0.1 mm 2 m/s 615 mmHg 68%
17:00 +19°C° 0.1 mm 2 m/s 615 mmHg 73%
18:00 +19°C° 0.1 mm 1 m/s 615 mmHg 77%
19:00 +18°C° 0.1 mm 1 m/s 615 mmHg 82%
20:00 +16°C° 0.1 mm 1 m/s 615 mmHg 86%
21:00 +14°C° 0.1 mm 1 m/s 615 mmHg 90%
22:00 +14°C° 0 mm 1 m/s 614 mmHg 90%
23:00 +14°C° 0 mm 1 m/s 614 mmHg 90%
Mostrar mais

Necessitamos do seu Consentimento

A Meteoprog e os seus Fornecedores de Serviços podem armazenar e aceder a dados pessoais como cookies, identificadores do dispositivo ou outras tecnologias semelhantes existentes no seu dispositivo e processar estes dados para personalizar conteúdos e anúncios, assim como funcionalidades nas redes sociais e análise de tráfego.

  • Armazenar e/ou aceder a informações no seu dispositivo

    Os cookies, identificadores do dispositivo ou outras informações podem ser armazenados ou acedidos no seu dispositivo, para os fins acima indicados.

  • Anúncios e conteúdos personalizados, medição de anúncios e conteúdos, dados sobre o público-alvo e desenvolvimento de produtos

    Os anúncios e os conteúdos podem ser personalizados com base num perfil. Podem ser adicionados dados adicionais para uma maior personalização dos anúncios e dos conteúdos. A eficácia dos anúncios e dos conteúdos pode ser medida. Podem ser obtidas informações sobre o público que visualizou os anúncios e os conteúdos. Estes dados podem ser usados para desenvolver ou melhorar sistemas, softwares ou a experiência do utilizador.

Ao clicar em "Eu concordo”, permitirá o uso de cookies, identificadores do dispositivo e web beacons mencionados ou outras tecnologias semelhantes. As configurações do navegador do seu dispositivo podem ser alteradas.

Para certos fins, podem ser invocados interesses legítimos ao invés de consentimento. Pode ler mais informação sobre este assunto na nossa Política de Privacidade e Cookies.